Regional Weather Roundup
Issued by NWS

Current Version | Previous Version | Text Only | Print | Product List | Glossary On
Versions: 1 2 3 4 5 6 7 8 9 10 11 12 13 14 15 16 17 18 19 20 21 22 23 24 25 26 27 28 29 30 31 32 33 34 35 36 37 38 39 40 41 42 43 44 45 46 47 48 49 50
253
ASUS44 KFWD 061815
RWRTX
NORTH TEXAS HOURLY WEATHER ROUNDUP
NATIONAL WEATHER SERVICE FORT WORTH TX
1200 PM CST SAT FEB 06 2016

NOTE: "FAIR" INDICATES FEW OR NO CLOUDS BELOW 12,000 FEET WITH NO
SIGNIFICANT WEATHER AND/OR OBSTRUCTIONS TO VISIBILITY.

TXZ118-119-061900-
DALLAS/FORT WORTH METROPLEX

CITY           SKY/WX    TMP DP  RH WIND       PRES   REMARKS
DFW AIRPORT    PTSUNNY   48  36  63 N9        30.39S
6HR MIN TEMP:  35; 6HR MAX TEMP:  48; 6HR PCP: TRACE;

DALLAS LOVE    PTSUNNY   44  36  73 N7        30.40F
6HR MIN TEMP:  37; 6HR MAX TEMP:  44;

FTW MEACHAM    CLOUDY    47  37  68 N10       30.41R
6HR MIN TEMP:  36; 6HR MAX TEMP:  46;

DAL-EXECUTIVE  CLOUDY    42  36  79 N8        30.38R WCI  37
6HR MIN TEMP:  31; 6HR MAX TEMP:  43;

FTW-ALLIANCE   CLOUDY    45  36  70 N9        30.41R
6HR MIN TEMP:  33; 6HR MAX TEMP:  46;

FTW-NAS-JRB    CLOUDY    47  36  65 N14       30.42R
6HR MIN TEMP:  36; 6HR MAX TEMP:  48;

FTW-SPINKS     PTSUNNY   46  37  71 N15G24    30.41S
ARLINGTON      CLOUDY    46  36  68 N14       30.40S WCI  40
6HR MIN TEMP:  38; 6HR MAX TEMP:  47;

GRAND PRAIRIE  CLOUDY    43  36  75 N9        30.42S WCI  37
ADDISON        PTSUNNY   45  37  76 NE6       30.40S
MESQUITE       CLOUDY    43  37  81 N7        30.39S WCI  39
LANCASTER      CLOUDY    42  36  79 N12       30.40S WCI  36
6HR MIN TEMP:  31; 6HR MAX TEMP:  43;

$$

TXZ091>094-102>105-117-120-121-131>134-061900-
NORTH CENTRAL TEXAS

CITY           SKY/WX    TMP DP  RH WIND       PRES   REMARKS
SHRMAN/DENISON SUNNY     48  38  69 CALM      30.40F
6HR MIN TEMP:  38; 6HR MAX TEMP:  48; 6HR PCP:  0.13;

GAINESVILLE    PTSUNNY   46  35  65 N5        30.43R
6HR MIN TEMP:  39; 6HR MAX TEMP:  47;

BOWIE          PTSUNNY   48  34  59 NW7       30.41S
6HR MIN TEMP:  30; 6HR MAX TEMP:  48;

BRIDGEPORT     SUNNY     48  37  67 NW8       30.45R
6HR MIN TEMP:  35; 6HR MAX TEMP:  48;

DECATUR        CLOUDY    45  34  65 N5        30.42R
6HR MIN TEMP:  32; 6HR MAX TEMP:  46;

DENTON         PTSUNNY   46  37  71 N7        30.41S
6HR MIN TEMP:  33; 6HR MAX TEMP:  48;

MCKINNEY       PTSUNNY   48  38  68 NE12      30.39S
6HR MIN TEMP:  39; 6HR MAX TEMP:  48; 6HR PCP: TRACE;

GREENVILLE     CLOUDY    45  39  81 N6        30.39F
ROCKWALL       CLOUDY    43  38  82 NE9       30.38S WCI  38
6HR MIN TEMP:  40; 6HR MAX TEMP:  43;

TERRELL        CLOUDY    44  39  82 N9        30.39R WCI  39
6HR MIN TEMP:  41; 6HR MAX TEMP:  45;

WAXAHACHIE     CLOUDY    42  39  89 N10       30.40S WCI  36
6HR MIN TEMP:  35; 6HR MAX TEMP:  43;

CLEBURNE       PTSUNNY   46  39  76 N23G30    30.40S WCI  38
GRANBURY       MOSUNNY   51  36  55 NW16G23   30.42F
6HR MIN TEMP:  39; 6HR MAX TEMP:  51;

$$

TXZ083>090-098>101-113>116-127>130-139>142-154-155-061900-
WESTERN NORTH TEXAS

CITY           SKY/WX    TMP DP  RH WIND       PRES   REMARKS
WICHITA FALLS  SUNNY     48  29  47 NW9       30.43F
6HR MIN TEMP:  31; 6HR MAX TEMP:  48;

WF-KICKAPOO    SUNNY     48  30  49 NW3       30.45S
6HR MIN TEMP:  36; 6HR MAX TEMP:  48;

VERNON         SUNNY     48  23  37 N5        30.45F
6HR MIN TEMP:  32; 6HR MAX TEMP:  48;

ABILENE        SUNNY     48  23  37 N16G24    30.44S
6HR MIN TEMP:  33; 6HR MAX TEMP:  49;

ABILENE-DYESS  SUNNY     49  22  34 N18       30.43F
6HR MIN TEMP:  34; 6HR MAX TEMP:  49;

BRECKENRIDGE   SUNNY     49  25  39 N10G21    30.43F
6HR MIN TEMP:  38; 6HR MAX TEMP:  50;

GRAHAM         SUNNY     49  31  48 N9        30.42F
6HR MIN TEMP:  36; 6HR MAX TEMP:  49;

MINERAL WELLS  MOSUNNY   51  34  52 N16       30.41S
6HR MIN TEMP:  37; 6HR MAX TEMP:  51;

STEPHENVILLE   SUNNY     49  31  50 N20G29    30.43R
6HR MIN TEMP:  38; 6HR MAX TEMP:  49;

COMANCHE       SUNNY     50  26  39 N21       30.42S
6HR MIN TEMP:  37; 6HR MAX TEMP:  50;

BROWNWOOD      SUNNY     52  19  28 NW22G31   30.42F
COLEMAN        SUNNY     51  20  30 N21       30.42F
6HR MIN TEMP:  37; 6HR MAX TEMP:  52;

$$

TXZ143>147-156>162-174-175-061900-
CENTRAL TEXAS

CITY           SKY/WX    TMP DP  RH WIND       PRES   REMARKS
WACO           MOSUNNY   52  35  52 NW21      30.37S
6HR MIN TEMP:  35; 6HR MAX TEMP:  52;

WACO-TSTC      MOSUNNY   50  37  62 N23G36    30.37S
WACO-MCGREGOR  MOSUNNY   52  36  54 N21G29    30.38S
6HR MIN TEMP:  38; 6HR MAX TEMP:  52;

HILLSBORO      CLOUDY    47  37  69 N24       30.38S WCI  39
6HR MIN TEMP:  32; 6HR MAX TEMP:  47;

CORSICANA      CLOUDY    50  38  63 N17G23    30.38R
6HR MIN TEMP:  38; 6HR MAX TEMP:  50;

MEXIA          CLOUDY    45  36  72 NW14G23   30.35R WCI  38
6HR MIN TEMP:  36; 6HR MAX TEMP:  47;

HEARNE         MOSUNNY   52  37  55 NW18G24   30.36S
CAMERON        PTSUNNY   52  37  54 N23G30    30.36S
6HR MIN TEMP:  42; 6HR MAX TEMP:  54;

TEMPLE         MOSUNNY   54  34  46 N22G29    30.37R
6HR MIN TEMP:  41; 6HR MAX TEMP:  54;

KILLEEN        MOSUNNY   52  29  40 N21G28    30.38R
6HR MIN TEMP:  41; 6HR MAX TEMP:  52;

KILLEEN-SKYLRK SUNNY     53  30  41 NW16G24   30.39R
6HR MIN TEMP:  41; 6HR MAX TEMP:  53;

FORT HOOD      MOSUNNY   53  29  38 N22       30.36S
6HR MIN TEMP:  40; 6HR MAX TEMP:  54;

GATESVILLE     MOSUNNY   52  30  43 NW17G24   30.41R
HAMILTON       SUNNY     51  31  45 N24       30.41R
6HR MIN TEMP:  39; 6HR MAX TEMP:  52;

LAMPASAS       SUNNY     53  28  37 NW12G23   30.39S
6HR MIN TEMP:  40; 6HR MAX TEMP:  53;

$$

TXZ095>097-106>112-122>126-135>138-148>153-164>167-061900-
EAST TEXAS

CITY           SKY/WX    TMP DP  RH WIND       PRES   REMARKS
PARIS          SUNNY     52  25  35 N8        30.37F
6HR MIN TEMP:  39; 6HR MAX TEMP:  52; 6HR PCP:  0.02;

SULPHUR SPRNGS CLOUDY    46  42  84 CALM      30.41R
6HR MIN TEMP:  40; 6HR MAX TEMP:  46; 6HR PCP:  0.09;

MOUNT PLEASANT PTSUNNY   47  40  76 SW3       30.39F
6HR MIN TEMP:  37; 6HR MAX TEMP:  47; 6HR PCP:  0.18;

GILMER         CLOUDY    44  41  90 N5        30.37S
MINEOLA        CLOUDY    46  39  76 CALM      30.37F
TYLER          PTSUNNY   47  37  68 NE13      30.35S
6HR MIN TEMP:  42; 6HR MAX TEMP:  49;

LONGVIEW       CLOUDY    43  40  89 CALM      30.35S
6HR MIN TEMP:  39; 6HR MAX TEMP:  43; 6HR PCP:  0.17;

MARSHALL       CLOUDY    42  38  86 CALM      30.39S
6HR MIN TEMP:  36; 6HR MAX TEMP:  42; 6HR PCP:  0.09;

ATHENS         CLOUDY    48  34  57 NE7       30.34S
PALESTINE      MOSUNNY   48  36  62 CALM      30.35R
JACKSONVILLE   PTSUNNY   50  39  65 NE7       30.33F
HENDERSON      CLOUDY    43  38  82 E5        30.36S
6HR MIN TEMP:  39; 6HR MAX TEMP:  43;

CENTER         DRIZZLE   44  41  88 SE3       30.34S
6HR MIN TEMP:  40; 6HR MAX TEMP:  45; 6HR PCP:  0.06;

NACOGDOCHES    CLOUDY    46  37  71 E3        30.33S
6HR MIN TEMP:  37; 6HR MAX TEMP:  46;

LUFKIN         PTSUNNY   50  41  71 CALM      30.31F
6HR MIN TEMP:  37; 6HR MAX TEMP:  47; 6HR PCP: TRACE;

$$

SUPPLEMENTAL OBSERVATIONS (CENTRAL)

CITY           SKY/WX    TMP DP  RH WIND       PRES   REMARKS
LAKE TEXOMA      N/A     45  39  81 W6          N/A
PAT MAYSE LAKE   N/A     52  23  32 NW8         N/A
GREENVILLE       N/A     48  34  57 N9          N/A
CEDAR HILL       N/A     43  36  75 VRB6G14     N/A  WCI  39
LAKE LIMESTONE   N/A     52  37  58 N14         N/A
MCGREGOR         N/A     52  34  50 N15G25      N/A
TEMPLE           N/A     54  34  47 NW6G15      N/A
$$

SUPPLEMENTAL OBSERVATIONS (WEST)

CITY           SKY/WX    TMP DPC1F1C2F2C3F3C4F4C5F5C6F6C7F7C8F8C9!



USA.gov is the U.S. government's official web portal to all federal, state and local government web resources and services.